Hourly Data Report for January 13, 2005

TORONTO CITY
ONTARIO

43°40'00.000" N
79°24'00.000" W
112.50 m
6158355
71508
XTO

Download Data

Hourly Data (January 2005)
Hourly Data Report for January 13, 2005
TIME
LST
Temp Definition
°C
Dew Point Definition
°C
Rel Hum Definition
%
Precip. Amount Definition
mm

Wind Dir Definition
10's deg

Wind Spd Definition
km/h
Visibility Definition
km
Stn Press Definition
kPa
Hmdx Definition


Wind Chill Definition


Weather Definition


00:00 6.7 6.7 100   LegendMM LegendMM   99.51     LegendNANA
01:00 6.0 6.0 100   LegendMM LegendMM   99.44     LegendNANA
02:00 7.8 7.8 100   LegendMM LegendMM   99.40     LegendNANA
03:00 8.9 8.9 100   LegendMM LegendMM   99.33     LegendNANA
04:00 10.5 9.4 93   LegendMM LegendMM   99.27     LegendNANA
05:00 10.6 8.3 86   LegendMM LegendMM   99.23     LegendNANA
06:00 10.5 8.3 86   LegendMM LegendMM   99.17     LegendNANA
07:00 10.4 8.3 87   LegendMM LegendMM   99.11     LegendNANA
08:00 10.7 8.3 85   LegendMM LegendMM   99.11     LegendNANA
09:00 10.8 8.3 85   LegendMM LegendMM   99.11     LegendNANA
10:00 11.3 8.2 81   LegendMM LegendMM   99.09     LegendNANA
11:00 12.0 8.5 79   LegendMM LegendMM   98.99     LegendNANA
12:00 12.5 8.1 75   LegendMM LegendMM   98.85     LegendNANA
13:00 12.8 8.4 75   LegendMM LegendMM   98.68     LegendNANA
14:00 12.8 7.9 72   LegendMM LegendMM   98.57     LegendNANA
15:00 13.3 8.6 73   LegendMM LegendMM   98.43     LegendNANA
16:00 12.6 8.1 74   LegendMM LegendMM   98.37     LegendNANA
17:00 12.8 9.1 78   LegendMM LegendMM   98.43     LegendNANA
18:00 13.0 11.8 92   LegendMM LegendMM   98.55     LegendNANA
19:00 4.4 2.8 89   LegendMM LegendMM   98.75     LegendNANA
20:00 3.8 2.6 92   LegendMM LegendMM   99.02     LegendNANA
21:00 3.2 1.9 91   LegendMM LegendMM   99.19     LegendNANA
22:00 2.0 1.1 94   LegendMM LegendMM   99.32     LegendNANA
23:00 1.5 0.9 96   LegendMM LegendMM   99.38     LegendNANA

Notes on Data Quality.

Legend

  • E = Estimated
  • M = Missing
  • NA = Not Available*
  • [empty] = Indicates an unobserved value
Date modified: